Temp
63 63 63 63 62 62 63 63 63 63 63 63 63 63 63 63 63 63 70 81 79 81 83 83 84 81 80 72 73 70 59 57 62 63 66 79 77 81 79 71 76 74 70 74 71
63 63 63 62 62 62 62 62 63 62 63 63 63 63 63 63 63 69 82 82 82 81 82 79 77 79 71 71 72 67 60 65 71 72 70 77 78 76 73 71 70 70 73 72 71
63 63 62 62 62 62 61 61 61 62 62 62 63 63 63 62 67 82 83 83 82 83 85 84 81 78 71 71 72 70 64 70 73 77 77 76 77 81 72 68 69 65 67 70 71
63 62 62 62 62 61 61 61 61 61 61 62 63 63 64 60 71 82 83 82 83 84 85 81 78 73 67 67 72 69 72 72 74 78 77 76 82 75 75 73 76 72 71 70 70
62 62 61 61 61 61 61 61 61 61 62 62 63 64 62 65 78 83 83 83 82 81 82 79 76 72 68 70 72 69 73 74 78 77 78 79 76 73 69 72 74 73 71 70 70
62 61 61 61 61 61 60 60 61 61 62 62 63 65 62 65 81 82 82 81 82 79 81 81 79 78 75 72 72 76 75 76 80 79 79 75 74 74 70 72 71 70 69 70 71
61 61 61 60 60 60 60 60 60 61 61 63 64 68 65 76 84 82 83 80 83 83 80 85 85 79 74 72 81 79 71 75 77 78 77 77 66 66 71 72 68 69 69 71 72
61 61 60 60 60 59 59 59 60 61 62 63 65 62 65 84 83 81 82 79 84 84 86 85 86 79 76 80 77 72 73 63 76 75 76 74 59 67 71 69 67 69 70 71 72
61 60 60 59 59 58 58 59 61 63 64 66 57 59 68 80 78 81 83 83 82 82 81 91 82 75 77 70 64 66 61 66 70 78 77 74 63 69 71 70 67 69 69 71 71
60 60 59 59 58 57 57 59 64 62 64 70 75 63 73 78 81 84 82 87 83 79 77 76 75 68 64 64 57 62 63 65 65 72 74 68 67 69 70 70 68 68 69 70 71
60 59 59 58 57 56 55 61 66 64 63 73 70 74 78 82 81 86 85 83 81 75 67 70 67 63 68 68 72 70 65 67 70 74 70 67 68 68 70 70 68 68 68 70 72
59 59 58 58 56 56 51 66 71 72 68 74 76 76 79 79 76 83 87 80 75 69 69 68 63 74 75 72 70 65 64 64 68 74 69 66 67 70 71 70 71 70 70 72 73
58 59 58 57 56 54 61 70 76 72 63 74 74 75 79 82 78 80 85 77 72 66 67 63 72 77 74 70 67 60 61 64 65 68 69 67 62 65 69 73 75 75 75 75 74
58 58 57 56 60 63 69 72 74 74 59 70 70 81 80 80 75 87 85 81 71 71 68 66 73 74 70 69 69 55 73 73 68 60 54 67 52 60 63 67 72 75 76 76 77
58 58 56 54 57 68 79 72 71 75 52 74 74 85 76 77 75 77 82 80 71 73 68 69 72 70 68 74 73 72 76 73 68 61 57 60 54 59 60 63 69 73 76 79 79
57 56 56 52 50 66 71 73 76 62 54 70 77 71 72 70 74 79 78 78 77 71 67 72 75 75 74 77 74 78 70 65 59 56 52 56 58 57 59 66 69 74 77 80 83
56 55 53 65 73 70 72 74 61 55 71 70 71 69 67 65 70 76 71 66 65 58 57 67 70 72 77 68 72 71 59 51 53 50 51 49 56 61 68 71 74 73 76 80 83
54 53 53 64 63 73 72 67 54 68 66 74 70 70 69 71 68 70 67 65 66 63 59 58 61 72 77 69 67 61 59 52 45 46 51 52 51 64 71 74 72 78 78 77 77
53 55 56 64 63 71 70 58 59 64 73 72 69 68 64 70 69 67 66 64 68 68 62 56 62 75 75 75 75 62 58 59 52 44 50 54 61 70 72 73 73 74 73 71 72
51 59 68 70 73 72 65 56 63 72 74 71 63 67 64 66 66 63 62 69 71 73 66 63 58 66 75 76 73 65 68 57 53 47 44 53 53 58 64 67 70 71 69 67 70
58 69 76 72 75 70 61 60 70 78 77 69 67 65 63 66 63 63 63 71 75 72 71 59 60 66 67 65 60 65 61 55 53 50 47 46 54 63 67 69 72 69 70 68 69
56 67 78 77 69 55 60 66 69 77 77 76 73 69 67 67 66 65 67 73 77 72 66 61 57 54 61 67 66 64 58 55 53 50 46 48 55 70 70 72 72 71 69 67 69
55 56 72 74 62 59 64 70 73 75 75 74 72 72 69 65 62 66 71 76 76 72 65 65 54 50 57 62 65 63 61 54 52 49 49 50 55 71 69 70 73 70 69 68 68
58 60 64 64 59 58 60 65 70 78 76 75 71 72 68 64 64 63 69 77 77 73 70 67 52 54 51 57 58 60 65 60 56 50 49 53 57 63 67 68 70 69 70 69 67
58 55 55 55 59 57 56 63 67 67 73 74 71 70 66 57 60 62 67 70 76 72 67 65 57 53 59 61 61 63 64 65 55 58 57 58 59 61 61 60 70 73 71 69 67
54 52 54 52 54 58 55 58 65 67 67 69 68 72 68 61 65 63 63 60 62 68 62 60 58 52 56 62 60 61 66 65 63 63 58 57 56 64 65 63 66 69 73 68 66
51 54 54 51 53 54 54 61 67 66 69 74 74 68 66 69 71 68 67 67 64 63 63 60 56 52 50 56 60 56 61 62 62 62 63 55 60 64 64 66 65 67 68 68 69
MSLP
1014.04 1013.66 1013.33 1013.06 1012.82 1012.70 1012.43 1012.16 1012.04 1012.01 1011.88 1011.52 1011.07 1010.89 1010.37 1010.14 1010.11 1010.15 1008.57 1006.16 1006.03 1006.36 1007.32 1007.77 1007.83 1008.18 1008.33 1008.96 1008.89 1009.50 1010.19 1010.21 1009.55 1008.85 1007.52 1005.95 1006.20 1007.02 1007.69 1008.81 1009.37 1010.11 1010.61 1011.23 1012.56
1013.97 1013.54 1013.19 1012.91 1012.65 1012.45 1012.24 1012.00 1011.81 1011.76 1011.61 1011.29 1010.89 1010.64 1010.22 1010.04 1009.82 1008.46 1005.35 1005.41 1005.65 1006.70 1007.02 1007.63 1008.00 1007.69 1007.98 1009.13 1008.71 1008.93 1009.66 1009.64 1009.12 1008.52 1007.87 1006.66 1005.92 1006.69 1007.96 1008.88 1009.80 1010.42 1010.97 1011.83 1012.75
1013.78 1013.39 1013.08 1012.75 1012.47 1012.23 1012.01 1011.91 1011.67 1011.48 1011.36 1011.01 1010.62 1010.36 1010.08 1010.01 1009.16 1005.79 1004.76 1005.65 1005.74 1006.70 1006.99 1007.94 1007.92 1007.67 1008.22 1009.01 1008.65 1008.83 1008.38 1008.00 1007.65 1007.59 1007.20 1006.62 1006.62 1006.45 1007.63 1008.81 1009.39 1010.31 1011.28 1012.03 1012.77
1013.65 1013.24 1012.86 1012.53 1012.21 1012.01 1011.75 1011.58 1011.43 1011.26 1011.09 1010.70 1010.29 1010.10 1009.77 1009.78 1007.75 1004.81 1005.04 1005.84 1006.18 1006.87 1007.16 1007.30 1007.81 1008.07 1008.82 1009.21 1008.85 1008.59 1007.73 1007.76 1006.93 1006.72 1006.74 1006.42 1006.45 1007.03 1007.78 1008.37 1008.53 1009.93 1010.54 1011.62 1012.47
1013.51 1013.10 1012.69 1012.29 1011.92 1011.73 1011.50 1011.31 1011.14 1010.98 1010.80 1010.45 1010.06 1009.84 1009.43 1008.67 1006.03 1004.49 1005.50 1006.31 1006.97 1007.17 1006.98 1007.20 1007.52 1008.01 1008.71 1008.83 1008.66 1008.92 1007.89 1006.97 1006.12 1006.39 1006.50 1006.58 1006.85 1007.82 1008.86 1009.16 1009.53 1010.63 1011.56 1012.07 1012.64
1013.30 1012.89 1012.49 1012.05 1011.66 1011.40 1011.23 1011.03 1010.78 1010.65 1010.52 1010.21 1009.91 1009.70 1009.12 1007.31 1004.70 1004.57 1005.62 1006.76 1006.75 1007.18 1006.98 1006.89 1006.40 1007.19 1007.56 1007.95 1008.12 1007.70 1007.78 1006.47 1005.05 1006.03 1006.37 1006.94 1007.42 1007.87 1009.74 1010.01 1010.46 1011.34 1011.71 1012.43 1012.61
1013.04 1012.56 1012.17 1011.80 1011.40 1011.07 1010.89 1010.70 1010.44 1010.27 1010.17 1010.01 1009.86 1009.53 1008.51 1005.47 1004.49 1004.83 1005.45 1005.56 1006.01 1006.17 1006.32 1005.84 1006.37 1006.85 1006.94 1007.23 1007.14 1007.16 1007.51 1006.84 1006.06 1006.96 1007.14 1006.93 1008.18 1008.93 1009.77 1010.73 1010.99 1011.58 1011.96 1012.18 1012.44
1012.81 1012.29 1011.86 1011.45 1011.07 1010.73 1010.51 1010.31 1010.13 1009.95 1009.88 1009.80 1009.70 1009.36 1007.50 1004.85 1004.81 1005.44 1005.95 1006.42 1006.50 1006.51 1005.97 1006.12 1006.77 1007.10 1007.32 1006.45 1006.76 1007.21 1007.27 1007.64 1005.80 1007.19 1007.25 1007.00 1007.89 1009.01 1009.58 1010.50 1011.49 1011.76 1011.88 1012.12 1012.22
1012.62 1012.03 1011.56 1011.19 1010.77 1010.37 1010.11 1009.91 1009.69 1009.59 1009.66 1009.58 1009.58 1008.88 1006.51 1005.03 1005.08 1005.11 1005.27 1005.46 1006.10 1006.49 1006.25 1006.43 1006.60 1006.81 1006.73 1006.60 1006.96 1006.98 1006.75 1006.90 1006.46 1006.73 1006.30 1006.10 1006.71 1008.10 1009.37 1009.95 1010.68 1011.42 1011.77 1011.66 1011.75
1012.34 1011.80 1011.35 1010.94 1010.54 1010.12 1009.70 1009.36 1009.27 1009.53 1009.70 1009.42 1008.83 1008.48 1005.73 1004.34 1003.70 1003.75 1004.40 1004.74 1005.59 1005.91 1007.00 1006.90 1006.74 1006.36 1006.55 1006.76 1006.68 1006.39 1006.51 1006.20 1006.48 1006.57 1006.53 1006.75 1006.38 1007.85 1008.97 1009.74 1010.06 1010.50 1010.88 1011.45 1011.39
1012.08 1011.55 1011.13 1010.65 1010.37 1010.15 1009.32 1009.17 1009.54 1009.17 1008.60 1007.06 1006.46 1005.72 1004.49 1003.42 1003.07 1003.12 1003.26 1004.12 1004.70 1004.68 1005.49 1005.51 1005.98 1005.98 1005.55 1006.04 1005.40 1005.52 1006.00 1005.86 1006.08 1006.04 1006.37 1006.79 1006.43 1007.41 1008.51 1009.72 1009.85 1010.16 1010.64 1010.32 1010.32
1011.95 1011.31 1010.83 1010.37 1010.10 1009.94 1010.01 1008.85 1007.27 1006.75 1006.65 1005.55 1005.51 1004.93 1003.83 1003.34 1003.19 1002.71 1002.78 1003.88 1004.33 1004.93 1005.28 1005.76 1005.58 1004.40 1004.57 1004.72 1004.82 1005.46 1005.43 1005.37 1006.26 1006.52 1006.86 1007.22 1006.87 1007.00 1008.08 1008.53 1009.10 1009.20 1009.76 1009.89 1009.93
1011.69 1011.12 1010.58 1010.18 1009.78 1009.66 1009.05 1007.51 1006.06 1006.00 1006.39 1004.82 1004.41 1003.69 1002.72 1003.05 1002.92 1002.49 1002.71 1003.43 1004.18 1004.93 1005.30 1005.78 1004.35 1004.05 1004.22 1003.66 1004.22 1004.33 1004.79 1004.84 1005.75 1007.03 1007.29 1007.73 1007.97 1006.94 1007.43 1007.67 1007.87 1008.45 1008.82 1009.47 1009.22
1011.44 1010.89 1010.40 1009.87 1009.98 1008.88 1007.68 1006.07 1005.80 1005.81 1005.97 1004.51 1003.35 1001.99 1002.07 1002.18 1002.39 1001.92 1002.22 1003.11 1004.05 1004.52 1005.15 1005.10 1003.87 1003.63 1003.29 1003.21 1003.15 1003.39 1003.48 1004.14 1005.59 1006.80 1007.64 1007.70 1007.94 1006.73 1006.63 1006.66 1007.07 1007.40 1007.37 1007.51 1007.83
1011.12 1010.56 1010.30 1010.14 1009.70 1008.33 1006.06 1005.50 1005.32 1005.57 1005.40 1003.65 1002.27 1001.17 1001.45 1001.96 1002.07 1001.92 1002.20 1002.70 1003.53 1004.01 1004.58 1004.21 1003.38 1003.24 1002.81 1002.34 1002.30 1002.44 1002.56 1003.86 1005.06 1006.43 1007.32 1008.14 1008.54 1006.16 1006.17 1006.30 1005.59 1005.83 1005.94 1006.04 1006.39
1010.64 1010.29 1010.06 1009.99 1009.62 1006.47 1005.51 1005.12 1005.27 1006.03 1004.71 1003.05 1001.82 1001.56 1001.84 1001.89 1002.01 1001.99 1002.25 1002.55 1003.10 1003.81 1004.19 1003.66 1002.68 1002.61 1001.69 1001.34 1001.81 1001.92 1002.77 1004.17 1005.66 1006.79 1007.61 1007.26 1007.89 1006.06 1005.48 1004.47 1004.03 1004.30 1004.57 1004.83 1004.87
1009.92 1009.55 1009.78 1008.49 1007.19 1005.85 1005.48 1005.40 1006.28 1005.94 1004.20 1003.02 1002.12 1001.94 1002.06 1002.21 1002.02 1002.29 1002.77 1003.19 1003.74 1004.10 1004.65 1003.74 1002.79 1001.95 1001.34 1001.44 1001.81 1002.33 1004.01 1005.55 1006.74 1007.44 1008.09 1007.52 1007.74 1005.49 1004.12 1003.74 1003.49 1003.73 1003.74 1003.22 1002.98
1008.86 1008.13 1008.09 1007.20 1006.04 1005.70 1005.90 1006.46 1006.21 1005.02 1003.90 1002.44 1002.14 1002.27 1002.28 1002.20 1002.22 1002.50 1003.10 1003.74 1003.80 1004.37 1005.03 1004.67 1003.18 1002.02 1001.43 1001.65 1002.12 1003.06 1004.33 1006.04 1007.54 1008.68 1008.23 1007.23 1006.38 1004.67 1003.87 1003.36 1003.53 1003.79 1003.95 1003.12 1002.52
1008.17 1007.83 1007.60 1005.49 1005.71 1006.33 1006.50 1006.78 1006.00 1004.70 1003.57 1002.74 1002.22 1002.39 1002.52 1002.27 1002.46 1002.70 1003.19 1003.72 1003.54 1003.79 1004.65 1004.71 1003.62 1002.34 1001.83 1001.46 1001.94 1003.17 1004.48 1005.61 1007.36 1008.72 1008.53 1007.60 1005.95 1004.40 1004.05 1004.11 1004.08 1004.13 1004.17 1003.85 1003.07
1009.12 1008.00 1006.43 1005.13 1005.10 1005.93 1006.68 1006.90 1005.71 1004.22 1003.14 1002.53 1002.33 1002.36 1002.62 1002.45 1002.48 1002.80 1003.08 1002.75 1002.80 1003.21 1003.69 1004.50 1004.20 1003.29 1002.52 1001.78 1002.29 1002.78 1004.35 1005.93 1007.49 1009.01 1009.25 1008.06 1006.73 1005.61 1004.82 1004.62 1004.38 1004.32 1004.55 1004.40 1003.69
1009.04 1008.00 1005.51 1005.08 1005.16 1006.56 1007.54 1006.73 1005.02 1003.09 1002.83 1002.40 1002.04 1002.29 1002.67 1002.59 1002.51 1002.70 1002.91 1002.55 1002.51 1003.11 1003.38 1004.23 1004.91 1004.33 1003.75 1003.86 1004.00 1003.88 1004.81 1006.69 1008.23 1009.08 1009.50 1009.02 1007.36 1005.21 1004.90 1004.79 1004.48 1004.72 1004.68 1004.62 1004.57
1010.13 1008.81 1006.11 1005.78 1006.53 1007.95 1007.65 1006.28 1004.58 1003.13 1001.77 1001.85 1001.87 1002.05 1002.49 1002.73 1002.91 1002.81 1002.60 1002.29 1002.08 1002.46 1003.56 1004.57 1005.60 1005.88 1005.22 1004.43 1004.49 1004.54 1005.37 1006.57 1008.28 1009.51 1009.57 1008.79 1006.73 1004.96 1004.66 1004.66 1004.61 1004.83 1005.24 1005.31 1005.19
1011.69 1010.09 1006.53 1006.40 1007.77 1008.51 1007.46 1006.25 1004.91 1003.63 1002.56 1002.01 1001.95 1001.99 1002.37 1002.85 1003.27 1003.17 1002.74 1002.49 1002.42 1002.89 1003.82 1004.79 1006.28 1006.78 1006.01 1005.68 1005.15 1005.31 1005.67 1006.38 1007.51 1008.61 1009.12 1008.73 1006.95 1005.21 1004.86 1004.85 1004.84 1005.19 1005.56 1005.80 1005.98
1012.34 1011.26 1009.04 1008.34 1009.30 1009.28 1008.78 1007.46 1005.82 1004.21 1003.31 1002.37 1002.25 1002.26 1002.67 1003.36 1003.57 1003.72 1003.37 1003.01 1003.04 1003.52 1004.19 1004.85 1007.04 1007.50 1007.37 1006.75 1006.32 1005.99 1005.73 1006.06 1006.97 1008.27 1008.76 1008.09 1006.85 1006.23 1005.79 1005.68 1005.83 1005.79 1005.79 1006.03 1006.51
1013.23 1013.58 1012.92 1011.64 1010.69 1010.53 1009.56 1008.45 1007.18 1005.76 1004.04 1003.22 1003.09 1003.05 1003.12 1003.83 1004.22 1004.29 1004.01 1003.84 1003.68 1004.16 1004.75 1005.61 1007.16 1007.49 1007.16 1006.69 1006.32 1005.83 1005.60 1005.71 1006.38 1006.81 1007.38 1007.07 1007.08 1006.68 1006.55 1006.25 1005.71 1005.66 1006.44 1006.92 1007.24
1014.90 1014.86 1013.73 1012.95 1012.04 1011.06 1010.14 1009.51 1008.50 1007.28 1006.03 1004.73 1004.23 1003.76 1003.52 1003.94 1004.13 1004.53 1004.45 1004.54 1004.63 1004.86 1005.55 1006.62 1007.49 1007.74 1007.53 1006.65 1006.31 1005.75 1005.17 1005.13 1005.48 1006.07 1006.87 1007.14 1007.30 1007.15 1006.76 1006.61 1006.06 1005.98 1006.27 1007.50 1007.96
1015.86 1015.37 1014.90 1013.82 1012.91 1012.01 1011.30 1010.30 1009.16 1008.59 1006.60 1005.62 1005.09 1004.56 1004.27 1004.04 1004.07 1004.28 1004.44 1004.60 1004.88 1005.46 1006.38 1007.22 1007.85 1008.71 1008.27 1007.30 1006.42 1005.87 1004.85 1004.82 1005.13 1005.56 1006.12 1007.02 1007.39 1007.51 1007.63 1007.29 1007.50 1007.39 1007.44 1007.85 1007.97
Wind_Speed
15 16 15 14 14 13 13 13 12 10 9 10 12 11 11 10 9 3 7 10 9 15 4 6 5 4 5 4 5 5 4 4 7 10 14 6 8 7 10 13 3 6 5 12 14
16 15 15 15 14 14 13 12 11 10 9 10 12 11 11 10 2 8 8 22 9 19 9 8 5 0 4 3 3 3 4 1 5 8 12 7 11 10 6 10 4 8 15 18 15
17 16 15 14 14 14 13 12 11 10 9 10 11 12 10 6 2 6 7 25 18 19 5 5 8 3 4 3 1 4 3 5 4 8 12 5 2 3 11 6 7 16 20 19 15
18 17 16 15 14 13 12 12 10 9 9 9 11 11 12 2 6 4 18 20 20 14 7 5 4 3 3 3 2 3 6 3 5 5 7 7 3 5 3 2 10 19 24 19 17
19 17 16 15 14 13 12 12 10 9 8 9 10 10 2 1 8 4 15 20 16 7 7 6 4 4 4 4 5 4 5 8 8 9 6 9 8 5 6 9 15 17 17 16 14
20 18 17 15 15 13 12 12 10 9 8 8 8 9 1 2 2 12 17 19 19 12 10 6 7 6 4 6 7 12 9 11 8 2 5 6 4 4 5 11 16 17 16 13 14
21 18 17 15 14 13 13 13 11 9 8 7 6 3 1 10 6 12 23 21 23 18 14 17 4 4 3 3 7 7 7 10 11 2 2 4 7 3 12 11 15 15 13 14 12
22 19 18 16 15 14 15 14 12 9 7 5 4 1 7 4 9 11 7 3 10 11 14 5 7 5 2 2 4 3 5 3 3 6 4 6 8 9 14 15 12 14 14 14 15
22 19 18 16 15 15 15 15 11 6 4 4 2 2 7 6 5 9 10 10 17 10 10 10 6 9 4 2 4 2 5 5 3 7 7 5 5 14 16 16 16 15 14 15 14
20 20 18 16 15 16 18 8 6 1 3 4 4 2 4 5 5 8 10 10 8 10 8 7 7 3 2 4 6 7 5 4 3 7 2 3 7 14 16 15 16 17 17 15 16
23 21 18 16 14 13 10 2 3 2 2 9 5 3 3 4 1 6 7 7 4 2 2 2 4 6 10 9 10 9 2 5 3 7 5 6 6 13 16 12 14 15 16 19 20
22 22 19 16 15 11 2 3 5 2 7 8 1 7 5 2 2 5 7 6 5 5 3 7 7 12 7 6 9 5 6 4 5 10 2 6 12 3 13 16 16 17 17 19 16
22 22 19 17 14 3 2 6 3 3 2 7 7 5 5 9 7 7 9 4 3 1 3 6 13 4 7 10 3 3 6 4 6 6 6 7 8 10 4 8 15 16 15 16 18
22 21 19 17 5 2 6 4 6 5 6 7 3 7 4 4 3 6 7 7 0 8 5 7 6 3 5 4 5 2 9 8 14 6 5 8 6 7 7 11 8 13 20 19 20
22 19 14 7 3 2 4 5 0 4 4 2 4 1 2 8 3 2 3 4 6 5 4 10 6 6 4 6 4 8 5 8 9 6 6 3 3 9 3 6 13 14 17 16 21
23 18 10 2 1 8 9 7 4 8 3 3 3 1 3 1 1 2 4 3 2 5 4 10 4 5 9 3 2 4 2 6 5 4 2 7 9 8 5 10 5 5 10 13 17
25 15 5 1 5 1 5 5 7 3 4 3 6 2 1 3 2 5 4 3 3 3 5 6 5 5 3 3 4 7 8 5 7 7 5 3 4 9 6 5 7 4 8 11 17
30 11 9 6 3 2 4 6 4 3 6 6 2 3 4 6 4 3 5 3 3 5 3 2 9 8 5 3 5 3 7 7 2 1 5 2 3 6 2 4 2 7 5 3 4
25 1 2 5 10 3 6 5 4 5 4 4 3 5 5 3 1 3 6 5 6 8 8 4 5 5 3 3 7 3 2 4 8 3 3 4 5 4 6 7 5 4 3 7 6
3 4 4 3 8 5 6 4 4 6 3 2 3 1 6 5 3 5 2 2 2 5 4 5 2 2 8 7 4 3 5 3 5 2 2 5 3 4 1 3 2 6 5 0 5
3 4 4 4 1 7 3 6 7 9 4 2 3 2 2 4 3 2 1 2 2 2 5 4 4 8 3 4 3 7 6 7 6 4 6 1 7 6 4 4 6 2 4 3 5
3 3 4 4 4 1 1 4 6 7 2 5 4 3 3 2 5 2 3 6 3 2 3 2 5 2 4 3 3 2 3 5 7 2 3 4 7 2 3 3 1 6 5 2 3
3 3 5 3 3 3 7 6 3 6 5 2 2 1 1 2 4 2 3 3 1 3 3 4 3 4 10 9 6 6 3 5 6 4 2 5 7 4 6 5 4 6 6 4 4
3 6 6 7 2 3 5 6 8 7 4 3 1 4 4 4 6 2 6 5 6 4 8 8 3 7 7 7 2 4 5 4 5 4 3 6 4 4 6 9 4 3 5 6 3
5 1 2 5 5 4 2 4 6 9 6 9 5 4 3 3 4 3 4 6 5 4 3 5 3 3 6 5 2 4 2 4 1 5 6 5 6 5 9 8 6 6 4 5 4
3 4 5 3 4 5 6 5 5 8 3 6 4 4 2 4 7 5 3 2 3 4 3 3 2 1 4 2 1 4 7 6 4 5 5 6 4 4 7 1 7 6 8 8 3
3 3 3 3 5 3 1 4 4 6 6 5 6 2 3 3 7 5 4 3 4 4 1 2 5 3 5 4 6 6 4 2 0 2 9 4 6 3 5 9 9 11 9 7 3
Wind_Direction
338 333 329 325 322 322 321 322 324 328 329 318 311 313 310 317 315 149 232 207 184 164 159 153 166 118 114 99 185 146 65 1 16 336 305 163 152 123 89 137 180 160 137 145 133
338 333 329 325 322 322 321 319 321 326 325 316 307 309 312 328 242 226 257 158 179 157 170 165 104 293 62 75 283 99 100 265 307 287 336 315 140 132 125 154 87 88 112 123 138
339 335 332 326 322 322 320 318 318 322 321 312 304 307 312 321 294 242 153 163 171 163 161 125 128 56 36 290 259 17 147 197 270 315 338 345 335 107 129 201 179 157 146 146 148
340 335 331 327 323 320 316 313 316 317 314 306 303 311 311 171 184 231 146 163 166 180 151 142 156 90 101 145 292 344 272 259 287 320 328 340 161 102 75 303 151 160 154 151 158
340 335 330 327 321 316 313 311 313 313 306 299 303 317 292 217 250 175 144 163 165 204 193 179 188 128 167 186 151 286 240 301 251 280 351 12 75 66 59 82 110 138 146 151 159
341 336 330 326 319 313 310 309 308 302 294 289 300 312 261 235 110 150 148 160 181 198 207 168 213 190 154 176 183 186 188 258 314 352 22 85 44 93 96 123 128 147 150 163 171
342 337 331 326 318 312 309 307 302 294 282 279 292 290 36 234 140 153 160 180 183 200 206 219 184 171 195 181 201 151 190 243 278 293 49 122 4 12 137 149 149 159 160 168 185
342 338 333 329 320 313 310 303 296 286 272 262 233 175 242 301 116 141 166 193 223 223 224 239 223 266 214 281 81 154 155 200 250 146 220 109 248 185 159 156 176 173 176 180 193
343 339 335 329 321 314 306 301 285 255 190 158 126 149 268 93 181 175 175 183 202 223 257 266 150 204 163 214 350 299 256 187 150 209 177 229 230 187 176 170 174 187 197 189 195
342 341 336 329 322 318 314 279 140 144 204 192 262 14 273 215 207 171 198 193 181 192 234 217 215 175 65 105 239 240 227 220 153 201 152 220 266 168 186 183 185 190 190 203 205
340 339 333 328 324 328 345 95 34 20 226 199 199 241 277 251 280 198 177 139 222 320 251 333 52 246 237 204 239 224 272 243 203 171 128 220 256 177 189 197 194 192 205 199 210
334 337 333 327 323 325 291 139 215 176 314 227 235 280 265 156 325 275 114 157 132 222 26 7 273 268 276 179 242 125 206 255 11 160 56 180 248 184 184 202 207 197 202 214 209
332 337 333 324 323 297 204 232 214 50 125 297 190 197 220 143 199 223 132 144 143 214 203 176 248 321 258 303 173 220 182 218 145 113 25 107 310 267 202 190 205 212 206 216 217
331 334 329 322 317 321 271 210 239 176 64 285 252 273 140 136 275 216 165 135 139 209 203 229 269 264 337 251 162 16 199 143 138 130 189 206 253 274 208 233 209 203 208 209 210
329 327 323 331 291 201 259 300 130 61 59 204 241 199 139 141 200 228 170 60 200 208 116 259 280 313 290 247 166 234 189 172 171 144 105 228 10 266 96 248 231 208 214 215 211
326 322 317 158 247 247 301 317 70 41 347 303 245 204 127 355 275 48 130 81 165 188 227 242 242 189 217 248 224 291 51 53 75 117 67 210 167 283 191 210 269 198 219 222 220
324 311 248 270 225 343 295 36 42 120 338 225 223 184 164 240 257 141 173 197 201 23 351 321 301 263 226 317 345 59 46 0 1 15 226 339 109 255 275 222 230 280 257 258 222
325 317 206 228 301 356 56 54 71 247 247 288 145 58 200 166 246 140 110 220 226 85 43 48 354 355 348 205 188 357 131 145 202 231 267 317 281 292 323 69 175 150 246 315 290
320 278 237 258 198 15 71 48 216 218 275 307 28 84 308 322 158 119 175 204 226 171 169 160 278 302 224 291 127 186 25 179 104 12 52 296 307 336 53 59 58 112 45 5 333
332 342 277 133 157 80 73 237 248 212 315 305 77 151 22 338 136 120 236 227 129 174 160 214 29 278 294 34 12 86 157 31 6 84 350 326 319 242 55 170 209 62 71 42 49
16 31 273 198 73 50 139 235 271 260 166 263 197 70 40 352 58 65 239 299 182 167 142 111 101 287 31 11 273 7 14 53 110 104 146 119 273 220 225 248 131 124 85 115 124
3 51 291 15 51 49 202 209 273 304 10 219 105 99 107 21 29 23 169 205 200 182 82 15 122 287 222 287 349 26 108 115 111 257 48 143 274 253 246 229 263 156 127 134 105
30 266 304 119 89 328 307 299 297 332 310 314 122 111 239 123 101 328 304 351 49 83 144 181 17 16 350 358 3 49 335 108 97 76 196 117 264 318 319 297 281 154 152 176 155
29 359 331 36 48 83 354 318 329 309 273 354 39 65 61 63 8 83 359 349 2 62 64 81 103 144 176 215 203 320 345 80 115 111 193 217 239 338 307 286 323 154 194 190 179
26 347 167 329 341 355 307 359 339 344 334 15 41 37 154 83 39 19 5 350 23 34 58 93 130 191 222 240 240 255 284 326 185 192 167 236 204 289 303 284 200 195 133 42 303
48 25 351 282 302 341 357 20 359 323 302 336 46 324 101 143 178 189 138 89 265 345 63 13 219 135 315 274 169 273 290 285 206 131 55 107 57 296 302 206 57 47 120 106 82
328 341 100 297 344 26 13 322 328 345 294 348 329 68 42 192 191 210 198 181 194 171 235 139 134 91 257 349 357 344 256 215 235 347 150 154 186 283 40 58 43 66 72 92 104